Regional Weather Roundup
Issued by NWS

Home | Current Version | Previous Version | Text Only | Print | Product List | Glossary On
Versions: 1 2 3 4 5 6 7 8 9 10 11 12 13 14 15 16 17 18 19 20 21 22 23 24 25 26 27 28 29 30 31 32 33 34 35 36 37 38 39 40 41 42 43 44 45 46 47 48 49 50
000
ASUS43 KFSD 281302
RWRSD

WEATHER ROUNDUP FOR SOUTH DAKOTA
NATIONAL WEATHER SERVICE SIOUX FALLS SD
800 AM CDT TUE APR 28 2015

NOTE: "FAIR" INDICATES FEW OR NO CLOUDS BELOW 12,000 FEET WITH NO
SIGNIFICANT WEATHER AND/OR OBSTRUCTIONS TO VISIBILITY.


SDZ001>005-009-010-012>017-281400-
NORTHWEST AND NORTH CENTRAL SOUTH DAKOTA

CITY           SKY/WX    TMP DP  RH WIND       PRES   REMARKS
BUFFALO          N/A     32  30  92 CALM      30.27R
FAITH            N/A     38  34  85 NW7       30.33S
MOBRIDGE       SUNNY     37  36  96 N7        30.31S FOG
$$

SDZ012>016-024>037-041>051-057-063-072>074-281400-
SOUTHWEST AND SOUTH CENTRAL SOUTH DAKOTA

CITY           SKY/WX    TMP DP  RH WIND       PRES   REMARKS
RAPID CTY ARPT SUNNY     38  35  89 CALM      30.34R
PIERRE         CLOUDY    45  41  86 NW7       30.32S
CUSTER         SUNNY     36  33  89 N3        30.32R
ELLSWORTH AFB  SUNNY     37  36  96 CALM      30.33S
PHILIP         SUNNY     35  33  92 W7        30.35S WCI  29
PINE RIDGE     CLOUDY    45  41  86 CALM      30.34S
WINNER         FAIR      45  40  82 NW8       30.33R
$$

SDZ004>011-016>023-039-040-281400-
NORTHEAST SOUTH DAKOTA

CITY           SKY/WX    TMP DP  RH WIND       PRES   REMARKS
ABERDEEN       MOSUNNY   49  42  77 N12       30.30S
WATERTOWN      CLOUDY    47  43  86 N14       30.25R
BROOKINGS      CLOUDY    48  43  81 N14       30.23S
SISSETON         N/A     47  45  93 N13       30.26S
$$

SDZ017-020-022-023-036>040-048>070-281400-
SOUTHEAST SOUTH DAKOTA

CITY           SKY/WX    TMP DP  RH WIND       PRES   REMARKS
SIOUX FALLS    PTSUNNY   46  39  76 NW7       30.22S
HURON          CLOUDY    48  44  86 N10       30.28S
MITCHELL       CLOUDY    48  44  86 N15       30.28R
YANKTON        SUNNY     46  43  87 NW12      30.24S
$$

ABBREVIATIONS USED IN REMARKS
   TC - TEMPERATURE IN CELSIUS
  WCI - WIND CHILL INDEX
   HX - HEAT INDEX
  VSB - VISIBILITY



USA.gov is the U.S. government's official web portal to all federal, state and local government web resources and services.